Weather History for Lago Vista, TX

Change the Weather History Date:

Monday, December 3, 2012

  Actual Average (KATT) Record (KATT)
Temperature  
Mean Temperature 68 °F 55 °F  
Max Temperature 73 °F 65 °F 86 °F (1995)
Min Temperature 62 °F 45 °F 22 °F (1929)
Degree Days  
Heating Degree Days 0 11  
Month to date heating degree days 32  
Since 1 July heating degree days 244  
Cooling Degree Days 2 1  
Month to date cooling degree days 3  
Year to date cooling degree days 3129  
Growing Degree Days 18 (Base 50)    
Moisture  
Dew Point 60 °F    
Average Humidity 77    
Maximum Humidity 94    
Minimum Humidity 61    
Precipitation  
Precipitation 0.00 in 0.08 in 6.34 in (1913)
Month to date precipitation 0.23  
Year to date precipitation 32.15  
Snow  
Snow 0.00 in - - ()
Month to date snowfall  
Since 1 July snowfall  
Snow Depth -    
Sea Level Pressure  
Sea Level Pressure 30.04 in    
Wind  
Wind Speed 9 mph (South)    
Max Wind Speed 15 mph    
Max Gust Speed 22 mph    
Visibility 10 miles    
Events      
T = Trace of Precipitation, MM = Missing Value Source: NWS Daily Summary

Daily Weather History Graph

Daily Weather History Graph

Search for Another Location

Airport:

Trip Planner

Search our weather history database for the weather conditions in past years. The results will help you decide how hot, cold, wet, or windy it might be!

Date:

Astronomy

Dec. 03, 2012 Rise Set
Actual Time 7:13 AM CST 5:30 PM CST
Civil Twilight 6:46 AM CST 5:56 PM CST
Nautical Twilight 6:17 AM CST 6:26 PM CST
Astronomical Twilight 5:48 AM CST 6:55 PM CST
Moon 10:07 PM CST (12/3) 10:46 AM CST (12/3)
Length of Visible Light 11h 09m
Length of Day
10h 17m
Waning Gibbous, 78% of the Moon is Illuminated
Dec 3
Waning Gibbous
Dec 6
Last Quarter
Dec 13
New
Dec 19
First Quarter
Dec 28
Full

Hourly Weather History & Observations

Time (CST) Temp. Dew Point Humidity Pressure Visibility Wind Dir Wind Speed Gust Speed Precip Events Conditions
12:15 AM 64.4 °F 62.6 °F 94% 30.08 in 10.0 mi SSE 12.7 mph 19.6 mph N/A   Overcast
12:35 AM 64.4 °F 60.8 °F 88% 30.07 in 10.0 mi South 10.4 mph 19.6 mph N/A   Overcast
12:55 AM 64.4 °F 60.8 °F 88% 30.07 in 10.0 mi SSE 11.5 mph 17.3 mph N/A   Overcast
1:15 AM 64.4 °F 60.8 °F 88% 30.07 in 10.0 mi SSE 9.2 mph 17.3 mph N/A   Overcast
1:35 AM 64.4 °F 60.8 °F 88% 30.07 in 10.0 mi South 9.2 mph 19.6 mph N/A   Overcast
1:55 AM 64.4 °F 60.8 °F 88% 30.06 in 10.0 mi South 9.2 mph 18.4 mph N/A   Overcast
2:15 AM 64.4 °F 60.8 °F 88% 30.06 in 10.0 mi South 8.1 mph - N/A   Overcast
2:35 AM 64.4 °F 60.8 °F 88% 30.06 in 10.0 mi South 6.9 mph - N/A   Mostly Cloudy
2:55 AM 62.6 °F 60.8 °F 94% 30.06 in 10.0 mi South 5.8 mph - N/A   Mostly Cloudy
3:15 AM 62.6 °F 60.8 °F 94% 30.06 in 10.0 mi South 5.8 mph - N/A   Overcast
3:35 AM 62.6 °F 60.8 °F 94% 30.06 in 10.0 mi South 6.9 mph - N/A   Mostly Cloudy
3:55 AM 62.6 °F 60.8 °F 94% 30.06 in 10.0 mi South 5.8 mph - N/A   Scattered Clouds
4:15 AM 62.6 °F 60.8 °F 94% 30.05 in 10.0 mi South 8.1 mph - N/A   Clear
4:55 AM 62.6 °F 60.8 °F 94% 30.05 in 10.0 mi South 5.8 mph - N/A   Mostly Cloudy
5:15 AM 62.6 °F 60.8 °F 94% 30.04 in 10.0 mi South 12.7 mph 16.1 mph N/A   Overcast
5:35 AM 62.6 °F 60.8 °F 94% 30.04 in 10.0 mi South 10.4 mph 16.1 mph N/A   Overcast
5:55 AM 64.4 °F 60.8 °F 88% 30.04 in 10.0 mi South 9.2 mph - N/A   Overcast
6:15 AM 64.4 °F 60.8 °F 88% 30.05 in 10.0 mi South 8.1 mph - N/A   Overcast
6:35 AM 64.4 °F 60.8 °F 88% 30.05 in 10.0 mi South 10.4 mph 16.1 mph N/A   Overcast
6:55 AM 64.4 °F 59.0 °F 83% 30.05 in 10.0 mi South 6.9 mph - N/A   Overcast
7:15 AM 64.4 °F 60.8 °F 88% 30.06 in 10.0 mi South 5.8 mph - N/A   Overcast
7:35 AM 64.4 °F 60.8 °F 88% 30.06 in 10.0 mi South 8.1 mph - N/A   Overcast
7:55 AM 64.4 °F 60.8 °F 88% 30.06 in 10.0 mi South 6.9 mph - N/A   Overcast
8:15 AM 64.4 °F 60.8 °F 88% 30.07 in 10.0 mi South 5.8 mph - N/A   Overcast
8:35 AM 64.4 °F 59.0 °F 83% 30.07 in 10.0 mi South 9.2 mph 17.3 mph N/A   Overcast
8:55 AM 64.4 °F 59.0 °F 83% 30.07 in 10.0 mi South 9.2 mph - N/A   Overcast
9:15 AM 66.2 °F 59.0 °F 78% 30.07 in 10.0 mi South 12.7 mph 17.3 mph N/A   Overcast
9:35 AM 68.0 °F 59.0 °F 73% 30.07 in 10.0 mi South 10.4 mph 20.7 mph N/A   Overcast
9:55 AM 68.0 °F 59.0 °F 73% 30.08 in 10.0 mi SSW 8.1 mph 20.7 mph N/A   Scattered Clouds
10:15 AM 71.6 °F 59.0 °F 64% 30.07 in 10.0 mi South 15.0 mph 20.7 mph N/A   Mostly Cloudy
10:35 AM 71.6 °F 59.0 °F 64% 30.08 in 10.0 mi South 15.0 mph 21.9 mph N/A   Mostly Cloudy
10:55 AM 71.6 °F 59.0 °F 64% 30.07 in 10.0 mi South 11.5 mph 17.3 mph N/A   Scattered Clouds
11:55 AM 73.4 °F 59.0 °F 61% 30.06 in 10.0 mi South 11.5 mph 19.6 mph N/A   Mostly Cloudy
12:15 PM 73.4 °F 59.0 °F 61% 30.05 in 10.0 mi SSW 13.8 mph 20.7 mph N/A   Overcast
12:35 PM 73.4 °F 60.8 °F 65% 30.04 in 10.0 mi South 11.5 mph 19.6 mph N/A   Overcast
12:55 PM 73.4 °F 60.8 °F 65% 30.04 in 10.0 mi South 10.4 mph 18.4 mph N/A   Overcast
1:15 PM 71.6 °F 60.8 °F 69% 30.04 in 10.0 mi SSW 9.2 mph 18.4 mph N/A   Overcast
1:35 PM 71.6 °F 60.8 °F 69% 30.03 in 10.0 mi SSW 6.9 mph - N/A   Overcast
1:55 PM 71.6 °F 60.8 °F 69% 30.03 in 10.0 mi SSW 11.5 mph 16.1 mph N/A   Overcast
2:15 PM 71.6 °F 60.8 °F 69% 30.03 in 10.0 mi SSW 5.8 mph - N/A   Overcast
2:35 PM 71.6 °F 60.8 °F 69% 30.02 in 10.0 mi South 5.8 mph - N/A   Overcast
2:55 PM 71.6 °F 60.8 °F 69% 30.01 in 10.0 mi South 6.9 mph - N/A   Overcast
3:15 PM 73.4 °F 60.8 °F 65% 30.00 in 10.0 mi South 11.5 mph 16.1 mph N/A   Overcast
3:35 PM 73.4 °F 60.8 °F 65% 29.99 in 10.0 mi South 8.1 mph 17.3 mph N/A   Mostly Cloudy
3:55 PM 73.4 °F 60.8 °F 65% 29.99 in 10.0 mi South 9.2 mph - N/A   Clear
4:15 PM 73.4 °F 60.8 °F 65% 29.98 in 10.0 mi SSW 6.9 mph 16.1 mph N/A   Clear
4:55 PM 73.4 °F 60.8 °F 65% 29.98 in 10.0 mi South 8.1 mph - N/A   Clear
5:15 PM 73.4 °F 60.8 °F 65% 29.98 in 10.0 mi SSW 4.6 mph - N/A   Clear
5:55 PM 71.6 °F 60.8 °F 69% 30.00 in 10.0 mi SSW 6.9 mph - N/A   Clear
6:15 PM 71.6 °F 60.8 °F 69% 30.00 in 10.0 mi SSW 6.9 mph - N/A   Clear
6:35 PM 71.6 °F 60.8 °F 69% 30.00 in 10.0 mi WSW 5.8 mph - N/A   Clear
6:55 PM 71.6 °F 60.8 °F 69% 30.00 in 10.0 mi SW 5.8 mph - N/A   Clear
7:15 PM 71.6 °F 60.8 °F 69% 29.99 in 10.0 mi SSW 6.9 mph - N/A   Clear
7:35 PM 71.6 °F 60.8 °F 69% 29.99 in 10.0 mi South 8.1 mph - N/A   Clear
7:55 PM 69.8 °F 60.8 °F 73% 29.99 in 10.0 mi South 5.8 mph - N/A   Clear
8:15 PM 71.6 °F 59.0 °F 64% 30.00 in 10.0 mi South 6.9 mph - N/A   Clear
8:35 PM 69.8 °F 60.8 °F 73% 30.00 in 10.0 mi SSE 5.8 mph - N/A   Clear
8:55 PM 68.0 °F 59.0 °F 73% 30.01 in 10.0 mi South 9.2 mph - N/A   Clear
9:15 PM 68.0 °F 59.0 °F 73% 30.01 in 10.0 mi South 13.8 mph 20.7 mph N/A   Clear
9:35 PM 68.0 °F 59.0 °F 73% 30.01 in 10.0 mi South 13.8 mph 19.6 mph N/A   Clear
9:55 PM 68.0 °F 59.0 °F 73% 30.02 in 10.0 mi South 10.4 mph 19.6 mph N/A   Clear
10:15 PM 68.0 °F 59.0 °F 73% 30.02 in 10.0 mi South 13.8 mph 19.6 mph N/A   Clear
10:35 PM 68.0 °F 59.0 °F 73% 30.05 in 10.0 mi WSW 6.9 mph - N/A   Clear
10:55 PM 66.2 °F 59.0 °F 78% 30.04 in 10.0 mi SW 4.6 mph - N/A   Clear
11:15 PM 66.2 °F 59.0 °F 78% 30.04 in 10.0 mi SSW 5.8 mph - N/A   Clear
11:35 PM 66.2 °F 59.0 °F 78% 30.05 in 10.0 mi SW 8.1 mph - N/A   Clear